User: anonymous   Login
Location: Unspecified
(0.0000°N, 0.0000°E)
Time: 05:30:24
(UTC+01:00)
Language:

Milstar 3 - Orbit

View from above orbital plane
View from above orbital plane
View from above satellite
View from above satellite

Ground track
Ground track

The orbit data is extracted from the following two-line orbital elements,

1 25724U 99023A   17010.98921005 0.00000010  00000-0  12583-3 0    02
2 25724  28.2236 302.4526 2132299  68.4591 291.5404  9.37455851    00
Epoch (UTC): 10 January 2017 23:44:27
Eccentricity: 0.2132299
inclination: 28.2236°
perigee height: 1097 km
apogee height: 5148 km
right ascension of ascending node: 302.4526°
argument of perigee: 68.4591°
revolutions per day: 9.37455851
mean anomaly at epoch: 291.5404°
orbit number at epoch: 0

The dashed part of the orbit path shows where the satellite is in the earth's shadow,  

DLR